Pacific Pathfinder — PATH — position and weather

sailwx.info

Track history (hours):
 
Tides and Currents Weather Stations Pressure Air Temp Water Temp Dewpoint Dewpoint Depression Visibility Wind Speed Wind Dir Waves Ship Positions

Pacific Pathfinder

Last reported at 2014-Oct-25 02:23 UTC. Time now 2014-Oct-25 05:43 UTC.
Position N 54°18' W 130°21'.

Length 15 m; draft 1.3 m.

Type: Pilot. MMSI: 316003484.

Date/timePositionNaut miles runAvg speedWind from/ knotsBaromVisibWave heightAir tempDewpointWater temp
2014-Oct-25 02:23N 54°18' W 130°21'0 0.0
2014-Oct-25 01:33N 54°18' W 130°21'0 0.0
2014-Oct-25 00:34N 54°18' W 130°21'0 0.0
2014-Oct-24 23:34N 54°18' W 130°21'0 0.0
2014-Oct-24 22:33N 54°18' W 130°21'0 0.0
2014-Oct-24 21:34N 54°18' W 130°21'0 0.0
2014-Oct-24 20:33N 54°18' W 130°21'0 0.0
2014-Oct-24 19:34N 54°18' W 130°21'0 0.0
2014-Oct-24 18:34N 54°18' W 130°21'0 0.0
2014-Oct-24 17:33N 54°18' W 130°21'0 0.0
2014-Oct-24 04:33N 54°18' W 130°21'0 0.0
2014-Oct-24 03:33N 54°18' W 130°21'0 0.0
2014-Oct-24 02:33N 54°18' W 130°21'0 0.0
2014-Oct-23 23:33N 54°18' W 130°21'0 0.0
2014-Oct-23 22:33N 54°18' W 130°21'0 0.0
2014-Oct-23 21:33N 54°18' W 130°21'0 0.0
2014-Oct-23 20:33N 54°18' W 130°21'0 0.0
2014-Oct-23 19:33N 54°18' W 130°21'2 0.0
2014-Oct-22 07:20N 54°19' W 130°23'2 0.3
2014-Oct-21 23:22N 54°17' W 130°22'1 1.3
2014-Oct-21 22:33N 54°18' W 130°21'0 0.0
2014-Oct-21 21:33N 54°18' W 130°21'0 0.0
2014-Oct-21 20:33N 54°18' W 130°21'8 3.7
2014-Oct-21 18:25N 54°15' W 130°34'8 9.2
2014-Oct-21 17:33N 54°18' W 130°21'1 0.1
2014-Oct-21 13:23N 54°17' W 130°22'1 0.7
2014-Oct-21 12:33N 54°18' W 130°21'0 0.0
2014-Oct-21 11:33N 54°18' W 130°21'1 0.3
2014-Oct-21 08:27N 54°17' W 130°22'1 1.0
2014-Oct-21 07:33N 54°18' W 130°21'0 0.0
2014-Oct-21 06:33N 54°18' W 130°21'1 1.3
2014-Oct-21 05:34N 54°19' W 130°23'2 1.1
2014-Oct-21 03:27N 54°20' W 130°26'4 4.2
2014-Oct-21 02:33N 54°18' W 130°21'0 0.0
2014-Oct-21 01:33N 54°18' W 130°21'0 0.0
2014-Oct-21 00:33N 54°18' W 130°21'0 0.0
2014-Oct-20 23:33N 54°18' W 130°21'0 0.0
2014-Oct-20 22:33N 54°18' W 130°21'0 0.0
2014-Oct-20 21:33N 54°18' W 130°21'0 0.0
2014-Oct-20 20:33N 54°18' W 130°21'0 0.0
2014-Oct-20 19:33N 54°18' W 130°21'0 0.0
2014-Oct-20 18:33N 54°18' W 130°21'0 0.0
2014-Oct-20 17:33N 54°18' W 130°21'0 0.0
2014-Oct-20 16:33N 54°18' W 130°21'0 0.0
2014-Oct-20 09:33N 54°18' W 130°21'0 0.0
2014-Oct-20 08:33N 54°18' W 130°21'0 0.0
2014-Oct-20 07:33N 54°18' W 130°21'0 0.0
2014-Oct-20 06:33N 54°18' W 130°21'0 0.0
2014-Oct-20 05:33N 54°18' W 130°21'1 0.0
2014-Oct-19 09:32N 54°17' W 130°22'1 0.7
2014-Oct-19 08:33N 54°18' W 130°21'0 0.0
2014-Oct-19 07:33N 54°18' W 130°21'0 0.0
2014-Oct-19 06:33N 54°18' W 130°21'0 0.0
2014-Oct-19 05:33N 54°18' W 130°21'0 0.0
2014-Oct-19 04:33N 54°18' W 130°21'0 0.0
2014-Oct-19 03:33N 54°18' W 130°21'0 0.0
2014-Oct-19 02:33N 54°18' W 130°21'0 0.0
2014-Oct-19 01:33N 54°18' W 130°21'0 0.0
2014-Oct-19 00:33N 54°18' W 130°21'0 0.0
2014-Oct-18 23:33N 54°18' W 130°21'0 0.0
2014-Oct-18 22:33N 54°18' W 130°21'0 0.0
2014-Oct-18 21:33N 54°18' W 130°21'0 0.0
2014-Oct-18 20:33N 54°18' W 130°21'0 0.0
2014-Oct-18 19:33N 54°18' W 130°21'0 0.0
2014-Oct-18 18:33N 54°18' W 130°21'0 0.0
2014-Oct-18 17:33N 54°18' W 130°21'0 0.0
2014-Oct-16 21:33N 54°18' W 130°21'0 0.0
2014-Oct-16 20:33N 54°18' W 130°21'2 2.0
2014-Oct-16 19:33N 54°19' W 130°19'  
Track history (hours):
 
Tides and Currents Weather Stations Pressure Air Temp Water Temp Dewpoint Dewpoint Depression Visibility Wind Speed Wind Dir Waves Ship Positions

Pacific Pathfinder

Last reported at 2014-Oct-25 02:23 UTC. Time now 2014-Oct-25 05:43 UTC.
Position N 54°18' W 130°21'.

Length 15 m; draft 1.3 m.

Type: Pilot. MMSI: 316003484.

Date/timePositionNaut miles runAvg speedWind from/ knotsBaromVisibWave heightAir tempDewpointWater temp
2014-Oct-25 02:23N 54°18' W 130°21'0 0.0
2014-Oct-25 01:33N 54°18' W 130°21'0 0.0
2014-Oct-25 00:34N 54°18' W 130°21'0 0.0
2014-Oct-24 23:34N 54°18' W 130°21'0 0.0
2014-Oct-24 22:33N 54°18' W 130°21'0 0.0
2014-Oct-24 21:34N 54°18' W 130°21'0 0.0
2014-Oct-24 20:33N 54°18' W 130°21'0 0.0
2014-Oct-24 19:34N 54°18' W 130°21'0 0.0
2014-Oct-24 18:34N 54°18' W 130°21'0 0.0
2014-Oct-24 17:33N 54°18' W 130°21'0 0.0
2014-Oct-24 04:33N 54°18' W 130°21'0 0.0
2014-Oct-24 03:33N 54°18' W 130°21'0 0.0
2014-Oct-24 02:33N 54°18' W 130°21'0 0.0
2014-Oct-23 23:33N 54°18' W 130°21'0 0.0
2014-Oct-23 22:33N 54°18' W 130°21'0 0.0
2014-Oct-23 21:33N 54°18' W 130°21'0 0.0
2014-Oct-23 20:33N 54°18' W 130°21'0 0.0
2014-Oct-23 19:33N 54°18' W 130°21'2 0.0
2014-Oct-22 07:20N 54°19' W 130°23'2 0.3
2014-Oct-21 23:22N 54°17' W 130°22'1 1.3
2014-Oct-21 22:33N 54°18' W 130°21'0 0.0
2014-Oct-21 21:33N 54°18' W 130°21'0 0.0
2014-Oct-21 20:33N 54°18' W 130°21'8 3.7
2014-Oct-21 18:25N 54°15' W 130°34'8 9.2
2014-Oct-21 17:33N 54°18' W 130°21'1 0.1
2014-Oct-21 13:23N 54°17' W 130°22'1 0.7
2014-Oct-21 12:33N 54°18' W 130°21'0 0.0
2014-Oct-21 11:33N 54°18' W 130°21'1 0.3
2014-Oct-21 08:27N 54°17' W 130°22'1 1.0
2014-Oct-21 07:33N 54°18' W 130°21'0 0.0
2014-Oct-21 06:33N 54°18' W 130°21'1 1.3
2014-Oct-21 05:34N 54°19' W 130°23'2 1.1
2014-Oct-21 03:27N 54°20' W 130°26'4 4.2
2014-Oct-21 02:33N 54°18' W 130°21'0 0.0
2014-Oct-21 01:33N 54°18' W 130°21'0 0.0
2014-Oct-21 00:33N 54°18' W 130°21'0 0.0
2014-Oct-20 23:33N 54°18' W 130°21'0 0.0
2014-Oct-20 22:33N 54°18' W 130°21'0 0.0
2014-Oct-20 21:33N 54°18' W 130°21'0 0.0
2014-Oct-20 20:33N 54°18' W 130°21'0 0.0
2014-Oct-20 19:33N 54°18' W 130°21'0 0.0
2014-Oct-20 18:33N 54°18' W 130°21'0 0.0
2014-Oct-20 17:33N 54°18' W 130°21'0 0.0
2014-Oct-20 16:33N 54°18' W 130°21'0 0.0
2014-Oct-20 09:33N 54°18' W 130°21'0 0.0
2014-Oct-20 08:33N 54°18' W 130°21'0 0.0
2014-Oct-20 07:33N 54°18' W 130°21'0 0.0
2014-Oct-20 06:33N 54°18' W 130°21'0 0.0
2014-Oct-20 05:33N 54°18' W 130°21'1 0.0
2014-Oct-19 09:32N 54°17' W 130°22'1 0.7
2014-Oct-19 08:33N 54°18' W 130°21'0 0.0
2014-Oct-19 07:33N 54°18' W 130°21'0 0.0
2014-Oct-19 06:33N 54°18' W 130°21'0 0.0
2014-Oct-19 05:33N 54°18' W 130°21'0 0.0
2014-Oct-19 04:33N 54°18' W 130°21'0 0.0
2014-Oct-19 03:33N 54°18' W 130°21'0 0.0
2014-Oct-19 02:33N 54°18' W 130°21'0 0.0
2014-Oct-19 01:33N 54°18' W 130°21'0 0.0
2014-Oct-19 00:33N 54°18' W 130°21'0 0.0
2014-Oct-18 23:33N 54°18' W 130°21'0 0.0
2014-Oct-18 22:33N 54°18' W 130°21'0 0.0
2014-Oct-18 21:33N 54°18' W 130°21'0 0.0
2014-Oct-18 20:33N 54°18' W 130°21'0 0.0
2014-Oct-18 19:33N 54°18' W 130°21'0 0.0
2014-Oct-18 18:33N 54°18' W 130°21'0 0.0
2014-Oct-18 17:33N 54°18' W 130°21'0 0.0
2014-Oct-16 21:33N 54°18' W 130°21'0 0.0
2014-Oct-16 20:33N 54°18' W 130°21'2 2.0
2014-Oct-16 19:33N 54°19' W 130°19'  

Dump ship's entire track history